Grand Junction, CO

5:30 PM MDT on October 17, 2019 (GMT -0600)
Walker

Weather History for KGJT - May, 2019

Change the Weather History Date:

Monday, May 27, 2019

  Actual Average Record
Temperature  
Mean Temperature 56 °F 65 °F  
Max Temperature 68 °F 80 °F 93 °F (2003)
Min Temperature 44 °F 50 °F 36 °F (1973)
Degree Days  
Heating Degree Days 9 3  
Month to date heating degree days 237 146  
Since 1 July heating degree days 5634 5580  
Cooling Degree Days 0 3  
Month to date cooling degree days 11 35  
Year to date cooling degree days 12 38  
Growing Degree Days 6 (Base 50)    
Moisture  
Dew Point 37 °F    
Average Humidity 53    
Maximum Humidity 80    
Minimum Humidity 26    
Precipitation  
Precipitation 0.08 in 0.03 in 0.73 in (1926)
Month to date precipitation 0.72 0.79  
Year to date precipitation 5.77 3.74  
Snow  
Snow 0.00 in 0.00 in 0.00 in (2002)
Month to date snowfall 0.0 0.1  
Since 1 July snowfall 17.4 19.1  
Snow Depth 0.00 in    
Sea Level Pressure  
Sea Level Pressure 29.67 in    
Wind  
Wind Speed 10 mph (SSE)    
Max Wind Speed 36 mph    
Max Gust Speed 47 mph    
Visibility 10 miles    
Events Rain    
T = Trace of Precipitation, MM = Missing Value Source: NWS Daily Summary

Daily Weather History Graph

Daily Weather History Graph

Search for Another Location

Airport or City:

Astronomy

May. 27, 2019 Rise Set
Actual Time 5:52 AM MDT 8:30 PM MDT
Civil Twilight 5:21 AM MDT 9:01 PM MDT
Nautical Twilight 4:42 AM MDT 9:40 PM MDT
Astronomical Twilight 3:58 AM MDT 10:24 PM MDT
Moon 2:34 AM MDT (5/27) 1:49 PM MDT (5/27)
Length of Visible Light 15h 40m
Length of Day
14h 38m
Last Quarter, 40% of the Moon is Illuminated
May 27
Last Quarter
Jun 3
New
Jun 10
First Quarter
Jun 17
Full
Jun 25
Last Quarter

Hourly Weather History & Observations

Time (MDT) Temp. Windchill Dew Point Humidity Pressure Visibility Wind Dir Wind Speed Gust Speed Precip Events Conditions
12:53 AM 57.0 °F - 37.0 °F 47% 29.59 in 10.0 mi ESE 10.4 mph - N/A   Clear
1:53 AM 59.0 °F - 36.0 °F 42% 29.60 in 10.0 mi ESE 13.8 mph - N/A   Mostly Cloudy
2:53 AM 57.9 °F - 37.0 °F 46% 29.61 in 10.0 mi SE 13.8 mph - N/A   Scattered Clouds
3:53 AM 57.0 °F - 36.0 °F 45% 29.62 in 10.0 mi Calm Calm - N/A   Mostly Cloudy
4:53 AM 57.0 °F - 34.0 °F 42% 29.64 in 10.0 mi East 3.5 mph - N/A   Overcast
5:53 AM 57.9 °F - 32.0 °F 37% 29.67 in 10.0 mi South 6.9 mph 19.6 mph N/A   Overcast
6:53 AM 55.9 °F - 33.1 °F 42% 29.71 in 10.0 mi SSE 12.7 mph - N/A   Overcast
7:53 AM 48.9 °F - 41.0 °F 74% 29.76 in 8.0 mi East 10.4 mph - 0.03 in Rain Light Rain
8:53 AM 48.0 °F - 41.0 °F 77% 29.77 in 10.0 mi East 11.5 mph - 0.03 in Rain Light Rain
9:53 AM 52.0 °F - 43.0 °F 71% 29.74 in 10.0 mi Calm Calm - 0.00 in   Overcast
10:53 AM 60.1 °F - 39.9 °F 47% 29.69 in 10.0 mi SSE 16.1 mph 24.2 mph N/A   Partly Cloudy
11:53 AM 60.1 °F - 37.0 °F 42% 29.67 in 10.0 mi WNW 5.8 mph - N/A   Mostly Cloudy
12:53 PM 63.0 °F - 37.9 °F 40% 29.63 in 10.0 mi ENE 8.1 mph - N/A   Mostly Cloudy
1:53 PM 66.0 °F - 33.1 °F 29% 29.57 in 10.0 mi South 9.2 mph - N/A   Partly Cloudy
2:53 PM 66.0 °F - 30.9 °F 27% 29.54 in 10.0 mi South 9.2 mph - N/A   Scattered Clouds
3:53 PM 64.9 °F - 30.9 °F 28% 29.57 in 10.0 mi WSW 15.0 mph 33.4 mph N/A   Partly Cloudy
4:53 PM 61.0 °F - 33.1 °F 35% 29.62 in 10.0 mi SSW 17.3 mph 40.3 mph N/A   Mostly Cloudy
5:14 PM 57.9 °F - 36.0 °F 44% 29.78 in 10.0 mi West 12.7 mph - N/A   Overcast
5:53 PM 53.1 °F - 43.0 °F 69% 29.68 in 10.0 mi NW 10.4 mph - 0.02 in   Overcast
6:53 PM 54.0 °F - 42.1 °F 64% 29.68 in 10.0 mi North 10.4 mph - 0.00 in   Scattered Clouds
7:53 PM 52.0 °F - 42.1 °F 69% 29.71 in 10.0 mi NW 10.4 mph - N/A   Mostly Cloudy
8:53 PM 51.1 °F - 42.1 °F 71% 29.72 in 10.0 mi West 8.1 mph - 0.00 in   Mostly Cloudy
9:53 PM 48.0 °F - 42.1 °F 80% 29.75 in 10.0 mi NW 16.1 mph 21.9 mph 0.00 in   Mostly Cloudy
10:53 PM 46.0 °F 40.2 °F 39.0 °F 76% 29.75 in 10.0 mi North 12.7 mph - N/A   Mostly Cloudy
11:53 PM 45.0 °F 40.6 °F 37.0 °F 74% 29.74 in 10.0 mi North 8.1 mph - N/A   Partly Cloudy